Regional Weather Roundup
Issued by NWS

Home | Current Version | Previous Version | Graphics & Text | Print | Product List | Glossary On
Versions: 1 2 3 4 5 6 7 8 9 10 11 12 13 14 15 16 17 18 19 20 21 22 23 24 25 26 27 28 29 30 31 32 33 34 35 36 37 38 39 40 41 42 43 44 45 46 47 48 49 50
239
ASUS45 KABQ 190801
RWRNM
NEW MEXICO REGIONAL WEATHER ROUNDUP
NATIONAL WEATHER SERVICE ALBUQUERQUE NM
100 AM MST THU JAN 19 2017

NOTE: "FAIR" MEANS FEW OR NO CLOUDS BELOW 12,000 FEET AGL WITH NO
       SIGNIFICANT WEATHER OR OBSTRUCTIONS TO VISION.

      THIS PRODUCT IS RELEASED AS TWO VERSIONS.  ONE VERSION NEAR
      THE TOP OF THE HOUR CONTAINING PRELIMINARY DATA FROM ALBUQUERQUE
      AND OTHER STATIONS.  A FINAL VERSION WITH ADDITIONAL DATA IS
      ISSUED ABOUT 10 MINUTES AFTER THE HOUR.

NMZ501-503-504-510>518-190900-
NORTHWEST PLATEAU/NORTHCENTRAL MOUNTAINS

CITY           SKY/WX    TMP DP  RH WIND       PRES   REMARKS
FARMINGTON     FAIR      26  24  92 NE3       29.95F
LOS ALAMOS     FAIR      30  22  71 CALM      29.92F
SANTA FE       FAIR      31  23  72 NW9       29.90F WCI  23
TAOS           FAIR      23  14  68 N6        29.92F WCI  16
ANGEL FIRE     FAIR      26  20  79 W14G26    29.88F WCI  14

$$
NMZ402-403-502-505>509-190900-
WESTCENTRAL MOUNTAINS/SOUTHWEST MOUNTAINS

CITY           SKY/WX    TMP DP  RH WIND       PRES   REMARKS
GALLUP         FAIR      29  26  89 SW5       30.00F WCI  24
GRANTS         FAIR      26  25  97 W6        29.99F WCI  19
SILVER CITY    FAIR      32  30  93 NW9       30.03F WCI  24

$$
NMZ407-409-411-412-190900-
SOUTHERN DESERTS

CITY           SKY/WX    TMP DP  RH WIND       PRES   REMARKS
DEMING         FAIR      39  35  86 W9        30.02F WCI  33
LAS CRUCES     FAIR      40  36  86 W10       30.01F WCI  33
HOLLOMAN AFB   FAIR      40  36  86 SE3       29.99F
ALAMOGORDO     FAIR      39  34  81 E3        29.97F
T OR C         FAIR      38  30  73 NW9       29.96F WCI  31

$$
NMZ519>523-190900-
CENTRAL VALLEYS/CENTRAL HIGHLANDS

CITY           SKY/WX    TMP DP  RH WIND       PRES   REMARKS
ALBUQUERQUE    FAIR      36  29  75 N5        29.95F WCI  32
DOUBLE EAGLE   FAIR      29  27  92 NW7       29.95F WCI  22
MORIARTY ARPT  FAIR      36  26  67 NW22G30   29.89F WCI  24
CLINES CORNERS FAIR      29  23  78 W31G38    29.83F WCI  13
BELEN          FAIR      31  28  91 CALM      29.95F
SOCORRO        FAIR      33  30  86 CALM      29.95F

$$
NMZ524>526-539-540-190900-
SOUTHCENTRAL MOUNTAINS

CITY           SKY/WX    TMP DP  RH WIND       PRES   REMARKS
RUIDOSO        NOT AVBL

$$
NMZ527>531-190900-
NORTHEAST HIGHLANDS/NORTHEAST PLAINS

CITY           SKY/WX    TMP DP  RH WIND       PRES   REMARKS
LAS VEGAS      FAIR      28  17  63 N12       29.73F WCI  18
RATON          FAIR      20  17  88 N3        29.70F
CLAYTON        FAIR      33  27  78 W7        29.64F WCI  27

$$
NMZ532>537-190900-
EASTCENTRAL PLAINS

CITY           SKY/WX    TMP DP  RH WIND       PRES   REMARKS
TUCUMCARI      FAIR      36  30  79 SW14      29.68F WCI  27
CANNON AFB     FAIR      41  39  92 SW23      29.75F
CLOVIS AIRPORT FAIR      39  32  75 SW15      29.75F WCI  31

$$
NMZ028-029-538-190900-
SOUTHEAST PLAINS

CITY           SKY/WX    TMP DP  RH WIND       PRES   REMARKS
ROSWELL        FAIR      37  32  82 SW10      29.83F WCI  30
ARTESIA        FAIR      45  39  81 SW15      29.86F
CARLSBAD       FAIR      41  36  82 W6        29.87F


$$




USA.gov is the U.S. government's official web portal to all federal, state and local government web resources and services.